[[{"header":{"parameterUnit":"m.s-1","parameterCategory":1,"la1":30.2991,"la2":30.254,"lo1":-89.0895,"lo2":-89.0444,"dy":0.0017,"dx":0.0017,"nx":28,"ny":28,"refTime":"2024-10-09T03:00:00:Z","depth":0,"parameterNumber":2,"parameterNumberName":"U-component_of_WINDS"},"data":[0,0,0,0,0,0,0,0,0,0,0,0,0,0,0,0,0,0,0,0,0,0,0,0,0,0,0,0,0,0,0,0,0,0,0,0,0,0,0,0,0,0,0,0,0,0,0,0,0,0,0,0,0,0,0,0,0,0,-0.837,-0.837,0,-0.8454,-0.8455,-0.8455,-0.8444,-0.8442,-0.8441,-0.844,-0.8528,-0.8532,-0.8536,0,0,0,0,0,0,0,0,0,0,0,0,0,-0.8201,-0.8204,-0.8369,-0.8371,-0.8372,-0.8453,-0.8455,-0.8456,-0.8444,-0.8442,-0.8441,-0.8439,-0.8527,-0.8532,-0.8536,0,0,0,0,0,0,0,0,0,0,0,0,0,-0.8278,-0.8205,-0.8369,-0.8376,-0.8377,-0.8453,-0.8455,-0.8456,-0.8444,-0.8442,-0.844,-0.8438,-0.8526,-0.8531,-0.8537,-0.8613,0,0,-0.8553,-0.8556,0,0,0,0,0,0,0,0,-0.8274,-0.8285,-0.8374,-0.8375,-0.8377,-0.8436,-0.8428,-0.8509,-0.8445,-0.8419,-0.844,-0.8437,-0.85,-0.8507,-0.8528,-0.8617,-0.8621,-0.8554,-0.8557,-0.856,-0.8561,0,0,0,0,0,0,0,-0.8269,-0.8281,-0.8403,-0.8375,-0.8377,-0.8375,-0.8383,-0.8443,-0.847,-0.8421,-0.842,-0.843,-0.85,-0.8522,-0.853,-0.8622,-0.8554,-0.8559,-0.8562,-0.8564,-0.8778,-0.8781,0,0,0,0,0,0,-0.8261,-0.8277,-0.84,-0.8405,-0.8319,-0.8379,-0.8389,-0.8419,-0.8469,-0.8475,-0.8432,-0.8429,-0.8514,-0.8523,-0.8533,-0.8626,-0.856,-0.8565,-0.8568,-0.8776,-0.8779,-0.8782,0,0,0,0,0,0,-0.8258,-0.8273,-0.8397,-0.8341,-0.8356,-0.8385,-0.8418,-0.8422,-0.8444,-0.8478,-0.8483,-0.845,-0.8513,-0.8525,-0.8593,-0.8629,-0.8567,-0.8572,-0.8773,-0.8777,-0.878,-0.8813,0,0,0,0,0,0,-0.8253,-0.8271,-0.83,-0.8342,-0.8359,-0.8455,-0.8421,-0.8425,-0.8453,-0.8451,-0.8496,-0.8501,-0.8512,-0.8585,-0.8598,-0.8635,-0.8576,-0.877,-0.8775,-0.8779,-0.8809,-0.8817,-0.8824,0,0,0,0,0,-0.8247,-0.8307,-0.8302,-0.8317,-0.8396,-0.8457,-0.8468,-0.8478,-0.8456,-0.8486,-0.8507,-0.85,-0.8622,-0.8592,-0.8607,-0.8646,-0.8768,-0.8774,-0.8779,-0.8805,-0.8815,-0.8824,0,0,0,0,0,0,-0.827,-0.8312,-0.8307,-0.8382,-0.8416,-0.8455,-0.8493,-0.8489,-0.853,-0.8526,-0.8538,-0.8549,-0.8618,-0.8638,-0.8604,-0.8723,-0.8692,-0.8701,-0.8707,-0.8717,-0.8724,-0.8719,-0.8581,0,0,0,0,0,-0.8283,-0.8329,-0.8363,-0.8426,-0.8443,-0.8465,-0.8492,-0.8497,-0.8533,-0.8548,-0.8574,-0.861,-0.8657,-0.8688,-0.8733,-0.8811,-0.8821,-0.8845,-0.8853,-0.8859,-0.8867,-0.891,-0.8922,-0.8799,-0.8799,-0.8799,0,0,-0.8312,-0.8341,-0.8369,-0.8431,-0.8458,-0.8506,-0.8477,-0.8529,-0.8565,-0.8556,-0.8622,-0.8642,-0.8683,-0.8757,-0.8791,-0.8776,-0.8903,-0.8866,-0.887,-0.8875,-0.8917,-0.8929,-0.8939,-0.8803,-0.8802,-0.8802,0,0,-0.839,-0.8415,-0.847,-0.8498,-0.8538,-0.8552,-0.8565,-0.8605,-0.8618,-0.8684,-0.8679,-0.8721,-0.8801,-0.8831,-0.8857,-0.8943,-0.8938,-0.8957,-0.8999,-0.9041,-0.9051,-0.906,-0.9092,-0.9103,-0.8965,-0.8965,-0.8965,0,-0.8421,-0.8492,-0.85,-0.8552,-0.8579,-0.8572,-0.8629,-0.8655,-0.8709,-0.8728,-0.8711,-0.8811,-0.8838,-0.8919,-0.894,-0.896,-0.8976,-0.8954,-0.9049,-0.9057,-0.9066,-0.9097,-0.9109,-0.8967,-0.8967,-0.8967,-0.8967,0,-0.8529,-0.8578,-0.8617,-0.8668,-0.87,-0.8754,-0.8771,-0.8802,-0.8804,-0.882,-0.8887,-0.8919,-0.897,-0.8989,-0.8992,-0.907,-0.906,-0.9046,-0.9016,-0.9079,-0.9109,-0.9121,-0.897,-0.897,-0.8969,-0.8968,0,0,-0.8625,-0.8679,-0.8693,-0.8716,-0.876,-0.8799,-0.8852,-0.8901,-0.8928,-0.8965,-0.9011,-0.9078,-0.9064,-0.9093,-0.9099,-0.9136,-0.9204,-0.9117,-0.9118,-0.9133,-0.9293,-0.9306,-0.9319,-0.9199,-0.9202,-0.9203,-0.929,0,-0.8708,-0.8802,-0.881,-0.8895,-0.8941,-0.8934,-0.8981,-0.9013,-0.9029,-0.907,-0.9088,-0.9136,-0.9113,-0.9131,-0.9167,-0.9188,-0.9236,-0.9181,-0.9244,-0.9246,-0.9236,-0.9334,-0.9347,-0.9428,-0.9302,-0.9304,-0.9305,0,-0.8818,-0.8857,-0.8946,-0.8983,-0.9003,-0.9045,-0.909,-0.9129,-0.9166,-0.9175,-0.9206,-0.9206,-0.9262,-0.9228,-0.9305,-0.9268,-0.9293,-0.9307,-0.9311,-0.9319,-0.9281,-0.9347,-0.9454,-0.9467,-0.9323,-0.9322,-0.932,0,-0.8881,-0.8956,-0.9019,-0.9039,-0.9083,-0.9113,-0.9133,-0.9167,-0.9196,-0.9235,-0.9254,-0.93,-0.9326,-0.9361,-0.9374,-0.9348,-0.9451,-0.9418,-0.9462,-0.9461,-0.9486,-0.9484,-0.9601,-0.9499,-0.9499,-0.9498,-0.9498,0,-0.8974,-0.9029,-0.9048,-0.9087,-0.9149,-0.9157,-0.9218,-0.9237,-0.9267,-0.931,-0.9306,-0.9347,-0.936,-0.9403,-0.9413,-0.9477,-0.9488,-0.9497,-0.95,-0.9499,-0.9498,-0.9518,-0.9513,-0.9502,-0.9501,-0.95,-0.95,0,-0.9056,-0.9071,-0.914,-0.9175,-0.9185,-0.923,-0.9261,-0.9299,-0.9312,-0.9367,-0.938,-0.9403,-0.9454,-0.9469,-0.953,-0.9537,-0.9611,-0.9608,-0.9599,-0.96,-0.9643,-0.9639,-0.9777,-0.9796,-0.968,-0.9681,-0.9682,0,-0.9116,-0.9158,-0.9198,-0.9226,-0.9247,-0.9292,-0.9321,-0.933,-0.9361,-0.9405,-0.9438,-0.9487,-0.9528,-0.9608,-0.9631,-0.9678,-0.9676,-0.9721,-0.9684,-0.9681,-0.9679,-0.9677,-0.9682,-0.9729,-0.9731,-0.9732,-0.9732,0,-0.922,-0.9225,-0.9267,-0.9311,-0.9345,-0.9381,-0.9415,-0.9438,-0.9452,-0.9487,-0.9538,-0.9569,-0.963,-0.968,-0.9727,-0.9748,-0.9744,-0.9743,-0.9756,-0.9757,-0.9751,-0.9756,-0.9621,-0.9741,-0.974,-0.974,-0.9739,-0.9739,-0.9294,-0.9331,-0.9365,-0.9412,-0.9438,-0.947,-0.9507,-0.9525,-0.9568,-0.9618,-0.9621,-0.9676,-0.9711,-0.9773,-0.9797,-0.984,-0.9828,-0.9846,-0.9851,-0.9856,-0.986,-0.9742,-0.9849,-0.9849,-0.9848,-0.9848,-0.9848,0,-0.94,-0.9421,-0.9463,-0.951,-0.9547,-0.9537,-0.9574,-0.9606,-0.9654,-0.9686,-0.9726,-0.9784,-0.9832,-0.9857,-0.9905,-0.9935,-0.9934,-0.9948,-0.9947,-0.9952,-0.9868,-0.9853,-0.9948,-0.9948,-0.9948,-0.9948,-0.9948,-0.9948,-0.9459,-0.9522,-0.9531,-0.9606,-0.9627,-0.9681,-0.9703,-0.9732,-0.9758,-0.9823,-0.9862,-0.9878,-0.9908,-0.9957,-1.0001,-1.0007,-1.0026,-1.0041,-1.0046,-0.9968,-0.9958,-0.9948,-0.9934,-1.0044,-1.0044,-1.0126,-1.0127,-1.0128]},{"header":{"parameterUnit":"m.s-1","parameterCategory":1,"la1":30.2991,"la2":30.254,"lo1":-89.0895,"lo2":-89.0444,"dy":0.0017,"dx":0.0017,"nx":28,"ny":28,"refTime":"2024-10-09T03:00:00:Z","depth":0,"parameterNumber":3,"parameterNumberName":"V-component_of_WINDS"},"data":[0,0,0,0,0,0,0,0,0,0,0,0,0,0,0,0,0,0,0,0,0,0,0,0,0,0,0,0,0,0,0,0,0,0,0,0,0,0,0,0,0,0,0,0,0,0,0,0,0,0,0,0,0,0,0,0,0,0,-6.0617,-6.0618,0,-6.0711,-6.0712,-6.0713,-6.0619,-6.0615,-6.0611,-6.0608,-6.0699,-6.0704,-6.071,0,0,0,0,0,0,0,0,0,0,0,0,0,-6.035,-6.0355,-6.0617,-6.0618,-6.0619,-6.0711,-6.0712,-6.0713,-6.0619,-6.0615,-6.061,-6.0606,-6.0697,-6.0703,-6.071,0,0,0,0,0,0,0,0,0,0,0,0,0,-6.0457,-6.0357,-6.0616,-6.0583,-6.0581,-6.071,-6.0712,-6.0713,-6.062,-6.0615,-6.0609,-6.0604,-6.0694,-6.0703,-6.0711,-6.0876,0,0,-6.0738,-6.0742,0,0,0,0,0,0,0,0,-6.0451,-6.0467,-6.0587,-6.0586,-6.0584,-6.0647,-6.0651,-6.0768,-6.0622,-6.0605,-6.0608,-6.0601,-6.0686,-6.0695,-6.0724,-6.088,-6.0884,-6.0739,-6.0744,-6.0748,-6.0751,0,0,0,0,0,0,0,-6.0444,-6.0462,-6.0654,-6.0589,-6.0587,-6.0562,-6.0571,-6.0673,-6.0675,-6.0606,-6.06,-6.0612,-6.0684,-6.0716,-6.0726,-6.0885,-6.0739,-6.0747,-6.0752,-6.0755,-6.1181,-6.1187,0,0,0,0,0,0,-6.0441,-6.0457,-6.0651,-6.0656,-6.0503,-6.0571,-6.0581,-6.0633,-6.0674,-6.0675,-6.0617,-6.0608,-6.0704,-6.0716,-6.0729,-6.0924,-6.0748,-6.0756,-6.0761,-6.1175,-6.1182,-6.1189,0,0,0,0,0,0,-6.0435,-6.0459,-6.0647,-6.0555,-6.0577,-6.0582,-6.064,-6.0637,-6.067,-6.0682,-6.0681,-6.065,-6.07,-6.0716,-6.084,-6.0926,-6.076,-6.0768,-6.1168,-6.1177,-6.1186,-6.1317,0,0,0,0,0,0,-6.0428,-6.0458,-6.0522,-6.0557,-6.0582,-6.0759,-6.0645,-6.0643,-6.0686,-6.0674,-6.0713,-6.0714,-6.0697,-6.0828,-6.0849,-6.0935,-6.0775,-6.116,-6.1172,-6.1183,-6.1305,-6.133,-6.1351,0,0,0,0,0,-6.0419,-6.0554,-6.0525,-6.0549,-6.0663,-6.0765,-6.0779,-6.0758,-6.0693,-6.0757,-6.0764,-6.0713,-6.0913,-6.0841,-6.0865,-6.0955,-6.1155,-6.1169,-6.1182,-6.1295,-6.1325,-6.135,0,0,0,0,0,0,-6.0526,-6.0558,-6.0527,-6.0677,-6.0719,-6.0749,-6.0828,-6.079,-6.085,-6.0836,-6.0806,-6.0816,-6.0948,-6.0963,-6.0882,-6.1116,-6.1023,-6.1042,-6.1101,-6.113,-6.1152,-6.1146,-6.0782,0,0,0,0,0,-6.0567,-6.0649,-6.0672,-6.0802,-6.0825,-6.0824,-6.0867,-6.0848,-6.0889,-6.0905,-6.0922,-6.0963,-6.1035,-6.1083,-6.115,-6.1307,-6.1313,-6.138,-6.1402,-6.1421,-6.1438,-6.1522,-6.1552,-6.1233,-6.1233,-6.1233,0,0,-6.0653,-6.068,-6.0734,-6.0824,-6.0855,-6.0939,-6.0839,-6.0932,-6.0993,-6.0919,-6.1038,-6.1052,-6.1095,-6.1237,-6.13,-6.1253,-6.1527,-6.1438,-6.1453,-6.146,-6.1539,-6.1569,-6.1596,-6.1243,-6.1241,-6.124,0,0,-6.0852,-6.0882,-6.0994,-6.1027,-6.1075,-6.1073,-6.11,-6.1135,-6.1142,-6.1262,-6.1208,-6.1279,-6.1404,-6.1438,-6.1471,-6.1683,-6.1638,-6.1706,-6.1824,-6.1907,-6.1932,-6.1954,-6.203,-6.2058,-6.1722,-6.1723,-6.1723,0,-6.0952,-6.1079,-6.1056,-6.1154,-6.1195,-6.1134,-6.1246,-6.1278,-6.1345,-6.1374,-6.1322,-6.1478,-6.1502,-6.1651,-6.1703,-6.1732,-6.1761,-6.1702,-6.193,-6.1952,-6.1973,-6.2045,-6.2074,-6.1731,-6.173,-6.1729,-6.1728,0,-6.12,-6.1288,-6.1373,-6.1441,-6.1492,-6.1596,-6.1588,-6.1641,-6.1617,-6.1621,-6.1742,-6.177,-6.1842,-6.1875,-6.1852,-6.2021,-6.1991,-6.1935,-6.1841,-6.2011,-6.2079,-6.2106,-6.1742,-6.1739,-6.1737,-6.1735,0,0,-6.1469,-6.1525,-6.1556,-6.1587,-6.1635,-6.1702,-6.1803,-6.1875,-6.1922,-6.1969,-6.2053,-6.216,-6.211,-6.2147,-6.2127,-6.2199,-6.2367,-6.2134,-6.2135,-6.2177,-6.2554,-6.2597,-6.2629,-6.2337,-6.2342,-6.2346,-6.2551,0,-6.167,-6.1849,-6.1832,-6.2,-6.2082,-6.2024,-6.2112,-6.2151,-6.2156,-6.2224,-6.2229,-6.2306,-6.2233,-6.2255,-6.2324,-6.2332,-6.2442,-6.2316,-6.2413,-6.2417,-6.2405,-6.2664,-6.2709,-6.2902,-6.2577,-6.2581,-6.2585,0,-6.1929,-6.1989,-6.2167,-6.2204,-6.2237,-6.2317,-6.2382,-6.2448,-6.249,-6.2488,-6.2532,-6.2499,-6.2599,-6.2503,-6.264,-6.2555,-6.2593,-6.2603,-6.261,-6.2618,-6.2512,-6.268,-6.2962,-6.2992,-6.2626,-6.2623,-6.262,0,-6.2109,-6.2233,-6.2356,-6.2384,-6.2429,-6.2487,-6.2508,-6.2545,-6.2589,-6.2645,-6.2674,-6.274,-6.2776,-6.2827,-6.2812,-6.2744,-6.2953,-6.2856,-6.2954,-6.2955,-6.3001,-6.2998,-6.3294,-6.3025,-6.3024,-6.3024,-6.3023,0,-6.2336,-6.2447,-6.2438,-6.2513,-6.2636,-6.2613,-6.2734,-6.2748,-6.2781,-6.2857,-6.281,-6.2882,-6.2858,-6.2928,-6.2917,-6.3032,-6.3048,-6.3049,-6.3045,-6.3054,-6.3054,-6.3079,-6.3066,-6.3031,-6.303,-6.3028,-6.3027,0,-6.2558,-6.2556,-6.2686,-6.2719,-6.273,-6.2819,-6.2846,-6.2916,-6.2918,-6.3015,-6.3036,-6.3039,-6.3119,-6.3109,-6.3198,-6.319,-6.3334,-6.3313,-6.3321,-6.3316,-6.3415,-6.3407,-6.3738,-6.378,-6.3483,-6.3486,-6.3488,0,-6.2703,-6.2788,-6.2831,-6.288,-6.2906,-6.2984,-6.303,-6.3011,-6.306,-6.3115,-6.3178,-6.3255,-6.3315,-6.3445,-6.3454,-6.3521,-6.3502,-6.3613,-6.3512,-6.3518,-6.3504,-6.35,-6.3508,-6.3633,-6.3637,-6.364,-6.3642,0,-6.2962,-6.2957,-6.3026,-6.3096,-6.3153,-6.3206,-6.3254,-6.3296,-6.3281,-6.3339,-6.3421,-6.3468,-6.356,-6.3636,-6.37,-6.3719,-6.3679,-6.3674,-6.37,-6.3711,-6.3712,-6.3713,-6.3376,-6.3666,-6.3664,-6.3662,-6.3661,-6.366,-6.315,-6.3223,-6.3265,-6.3344,-6.3378,-6.3425,-6.3493,-6.3504,-6.3573,-6.3648,-6.3632,-6.3725,-6.3764,-6.3846,-6.3872,-6.3943,-6.3903,-6.3941,-6.395,-6.396,-6.3973,-6.37,-6.3955,-6.3954,-6.3953,-6.3953,-6.3952,0,-6.3406,-6.3431,-6.3504,-6.3574,-6.3636,-6.3594,-6.3645,-6.3699,-6.3782,-6.3823,-6.3884,-6.3979,-6.4052,-6.4067,-6.4137,-6.4191,-6.4174,-6.421,-6.4206,-6.4212,-6.4005,-6.3975,-6.4223,-6.4223,-6.4223,-6.4223,-6.4223,-6.4223,-6.3547,-6.3669,-6.3669,-6.3807,-6.3829,-6.3923,-6.3955,-6.3997,-6.403,-6.4139,-6.4201,-6.4211,-6.4241,-6.4312,-6.4378,-6.438,-6.4408,-6.4452,-6.4447,-6.4253,-6.4226,-6.42,-6.4173,-6.4458,-6.4458,-6.4648,-6.4649,-6.4651]}]]